TimeCDT,TemperatureF,Dew PointF,Humidity,Sea Level PressureIn,VisibilityMPH,Wind Direction,Wind SpeedMPH,Gust SpeedMPH,PrecipitationIn,Events,Conditions,WindDirDegrees,DateUTC
12:23 AM,55.4,50.0,82,30.11,1.0,NNW,4.6,-,N/A,,Haze,340,2013-09-29 05:23:00
12:48 AM,57.2,50.0,77,30.11,1.2,NNW,3.5,-,N/A,,Haze,340,2013-09-29 05:48:00
12:58 AM,57.6,49.3,74,30.10,1.0,NNW,4.6,-,N/A,,Haze,340,2013-09-29 05:58:00
1:23 AM,57.2,48.2,72,30.11,1.2,North,5.8,-,N/A,,Haze,350,2013-09-29 06:23:00
1:58 AM,57.0,48.2,72,30.10,1.2,North,5.8,-,N/A,,Haze,350,2013-09-29 06:58:00
2:23 AM,53.6,48.2,82,30.11,1.8,North,4.6,-,N/A,,Haze,360,2013-09-29 07:23:00
2:28 AM,53.6,48.2,82,30.10,2.0,North,4.6,-,N/A,,Haze,360,2013-09-29 07:28:00
2:33 AM,53.6,48.2,82,30.10,1.5,NNW,3.5,-,N/A,,Haze,340,2013-09-29 07:33:00
2:38 AM,53.6,48.2,82,30.10,1.2,NNW,2.3,-,N/A,,Haze,340,2013-09-29 07:38:00
2:53 AM,53.6,48.2,82,30.10,1.5,Calm,Calm,-,N/A,,Haze,0,2013-09-29 07:53:00
2:58 AM,54.0,47.8,80,30.09,1.5,NNW,2.3,-,N/A,,Haze,340,2013-09-29 07:58:00
3:03 AM,53.6,48.2,82,30.10,1.8,Calm,Calm,-,N/A,,Haze,0,2013-09-29 08:03:00
3:13 AM,51.8,48.2,88,30.10,1.5,NNW,3.5,-,N/A,,Haze,340,2013-09-29 08:13:00
3:18 AM,51.8,48.2,88,30.09,1.2,NNW,3.5,-,N/A,,Haze,340,2013-09-29 08:18:00
3:28 AM,51.8,48.2,88,30.09,1.5,North,4.6,-,N/A,,Haze,350,2013-09-29 08:28:00
3:33 AM,51.8,48.2,88,30.09,2.0,North,4.6,-,N/A,,Clear,350,2013-09-29 08:33:00
3:53 AM,51.8,48.2,88,30.09,1.8,NNW,4.6,-,N/A,,Clear,340,2013-09-29 08:53:00
3:58 AM,50.0,48.2,94,30.08,1.8,NNW,4.6,-,N/A,,Clear,340,2013-09-29 08:58:00
4:08 AM,50.0,48.2,94,30.08,2.0,North,4.6,-,N/A,,Clear,350,2013-09-29 09:08:00
4:23 AM,50.0,48.2,94,30.08,1.8,North,3.5,-,N/A,,Clear,350,2013-09-29 09:23:00
4:28 AM,50.0,48.2,94,30.08,2.0,North,3.5,-,N/A,,Clear,360,2013-09-29 09:28:00
4:43 AM,50.0,46.4,87,30.08,1.8,North,4.6,-,N/A,,Clear,360,2013-09-29 09:43:00
4:48 AM,50.0,48.2,94,30.08,1.5,North,3.5,-,N/A,,Clear,350,2013-09-29 09:48:00
4:58 AM,50.9,47.3,87,30.07,1.5,North,4.6,-,N/A,,Clear,10,2013-09-29 09:58:00
5:08 AM,50.0,46.4,87,30.09,2.0,NNE,1.2,-,N/A,,Clear,30,2013-09-29 10:08:00
5:18 AM,51.8,48.2,88,30.09,3.0,NNE,2.3,-,N/A,,Haze,30,2013-09-29 10:18:00
5:33 AM,51.8,48.2,88,30.09,2.5,NNE,2.3,-,N/A,,Haze,20,2013-09-29 10:33:00
5:58 AM,50.9,47.1,87,30.08,2.0,Calm,Calm,-,N/A,,Clear,0,2013-09-29 10:58:00
6:58 AM,48.7,46.6,92,30.10,2.0,North,5.8,-,N/A,,Clear,10,2013-09-29 11:58:00
7:13 AM,48.2,46.4,93,30.11,1.5,North,3.5,-,N/A,,Clear,350,2013-09-29 12:13:00
7:18 AM,48.2,46.4,93,30.11,1.2,North,4.6,-,N/A,,Clear,350,2013-09-29 12:18:00
7:43 AM,48.2,46.4,93,30.11,1.0,North,2.3,-,N/A,,Clear,360,2013-09-29 12:43:00
7:58 AM,49.3,47.5,94,30.09,1.0,North,4.6,-,N/A,,Clear,10,2013-09-29 12:58:00
8:48 AM,55.4,51.8,88,30.10,1.2,North,4.6,-,N/A,,Clear,10,2013-09-29 13:48:00
8:58 AM,56.8,53.1,87,30.10,1.2,North,5.8,-,N/A,,Haze,10,2013-09-29 13:58:00
9:18 AM,60.8,53.6,77,30.11,1.5,North,4.6,-,N/A,,Haze,360,2013-09-29 14:18:00
9:23 AM,60.8,53.6,77,30.11,1.2,North,4.6,-,N/A,,Haze,10,2013-09-29 14:23:00
9:33 AM,62.6,53.6,72,30.11,1.5,North,3.5,-,N/A,,Haze,360,2013-09-29 14:33:00
9:43 AM,64.4,53.6,68,30.11,1.2,North,4.6,-,N/A,,Haze,350,2013-09-29 14:43:00
9:48 AM,64.4,53.6,68,30.11,1.0,North,4.6,-,N/A,,Haze,350,2013-09-29 14:48:00
9:58 AM,64.9,53.1,65,30.10,1.0,NNW,4.6,-,N/A,,Haze,330,2013-09-29 14:58:00
10:08 AM,66.2,51.8,60,30.11,0.8,North,4.6,-,N/A,,Haze,350,2013-09-29 15:08:00
10:23 AM,68.0,51.8,56,30.11,1.0,North,5.8,-,N/A,,Haze,350,2013-09-29 15:23:00
10:53 AM,69.8,48.2,46,30.11,1.2,Calm,Calm,-,N/A,,Haze,0,2013-09-29 15:53:00
10:58 AM,69.8,48.2,46,30.10,1.5,North,4.6,-,N/A,,Haze,350,2013-09-29 15:58:00
11:03 AM,69.8,48.2,46,30.11,1.0,North,1.2,-,N/A,,Haze,360,2013-09-29 16:03:00
11:08 AM,69.8,48.2,46,30.11,1.2,Variable,1.2,-,N/A,,Haze,0,2013-09-29 16:08:00
11:13 AM,69.8,48.2,46,30.11,2.0,Calm,Calm,-,N/A,,Haze,0,2013-09-29 16:13:00
11:28 AM,71.6,48.2,43,30.10,5.0,NW,2.3,-,N/A,,Haze,320,2013-09-29 16:28:00
11:58 AM,72.9,46.2,39,30.08,10.0,Variable,6.9,-,N/A,,Clear,0,2013-09-29 16:58:00
12:58 PM,74.1,44.6,35,30.06,10.0,SW,2.3,-,N/A,,Clear,230,2013-09-29 17:58:00
1:58 PM,75.9,45.1,33,30.02,8.0,Variable,1.2,-,N/A,,Clear,0,2013-09-29 18:58:00